Location: Les Salelles
(44.4192°N, 4.1044°E)
Time: 19:52:02
(UTC+00:00)

Cosmos 1726 Rocket - Pass Details

Date: 20 January 2021
Orbit: 604 x 628 km, 82.5° (Epoch: 04 March)

Event Time Altitude Azimuth Distance (km) Brightness Sun altitude
Rises 17:37:38 0° 351° (N) 2,882 6.9 -10.9°
Reaches altitude 10° 17:39:52 10° 353° (N) 1,977 6.1 -11.3°
Maximum altitude 17:44:15 85° 81° (E) 623 3.5 -12.0°
Drops below altitude 10° 17:48:38 10° 171° (S) 1,976 6.2 -12.8°
Sets 17:50:51 0° 172° (S) 2,881 7.1 -13.1°
